< < Back
Terminal Aerodrome Forecast


Current Version              Previous Versions:   1  2  3  4  5  6  7  8  9  

Terminal Aerodrome Forecast

404
FTUS42 KJAX 221100
TAFSSI
TAF
KSSI 221120Z 2212/2312 03012G18KT P6SM SCT025 BKN050
     FM221500 04013G20KT P6SM VCSH BKN025 OVC070
     FM221700 05015G25KT P6SM VCSH BKN020 OVC070
     FM230200 06013KT 5SM -RA BR OVC015 WS020/10040KT=



Latest METAR

354
SAUS70 KWBC 230558
MTRSSI
METAR KSSI 230553Z AUTO 07007KT 10SM OVC034 17/16 A3015 RMK AO2 SLP208
60001 T01670156 10178 20161 58021


USA.gov is the U.S. government's official web portal to all federal, state and local government web resources and services.